COSMOS 2158

导读

COSMOS 2158是独立国家联合体(CIS)继承苏联航天遗产后,于1991年9月28日08时发射的“宇宙”系列卫星,该系列是苏联/俄罗斯规模最大的军用卫星家族。作为冷战末期的产物,它大概率承担空间侦察、电子情报收集或轨道技术验证任务,延续了“宇宙”系列支撑战略监测的传统,是后苏联时代早期航天活动的重要见证。

Basic Information
目录编号:
21729
目录名称:
COSMOS 2158
国际标识:
1991-068B
轨道中心:
EARTH
卫星名称:
COSMOS 2158
卫星全名:
--
卫星状态:
在轨 (已飞行12722 天)
发射日期:
1991-09-28 UTC
国别 :
俄罗斯(独联体) (CIS)
星等 :
--
Orbit Information
数据来源 国际轨道数据 AOE轨道数据
星历时间 2026-07-28T00:50:43+0800
1天前
查看轨道信息
2026-07-24T09:00:00+0800
4天前
查看轨道信息
半长轴 7784.325km 7784.327km
偏心率 0.0004358 0.0004453
轨道倾角 82.585° 82.586°
近地点辐角 332.887° 341.631°
升交点赤经 285.223° 287.564°
平近点角 195.491° 98.680°
近地点 1402.795km 1402.723km
远地点 1409.581km 1409.657km
周期 113.918分钟 113.918分钟
每日圈数 12.640707 12.640703
Detailed Information
使用方式:
暂无
2D Orbit Map
3D Orbit Map
Orbit Altitude Analysis Chart
Orbit Inclination Analysis Chart
Orbit Comprehensive Analysis Chart
View Comprehensive Chart